Simultaneous Nadir Overpasses (SNOs) Predictions

Prediction of SNOs between TERRA and METOP-C Satellite Orbit:

Table of predicted SNOs for the next 14.0 days since TLE Epoch: 4/8/2023
Index Date (TERRA) Time (TERRA) Lat,Lon (TERRA) SZA (TERRA ) Date (METOP-C) Time (METOP-C) Lat,Lon (METOP-C) SZA (METOP-C ) Distance(km) Time Diff (sec)
1 04/08/2023 17:42:56 80.86, -52.06 75.04 04/08/2023 17:42:01 80.86, -52.05 75.02 0.21 55
2 04/08/2023 18:32:17 -80.91, 116.21 104.88 04/08/2023 18:32:39 -80.91, 116.28 104.86 1.24 22
3 04/11/2023 09:54:01 80.88, 65.38 74.11 04/11/2023 09:53:41 80.87, 65.22 74.08 3.13 20
4 04/11/2023 10:43:23 -80.90,-126.69 105.87 04/11/2023 10:44:20 -80.90,-126.83 105.86 2.53 57
5 04/14/2023 01:15:45 -80.85, 14.61 106.89 04/14/2023 01:14:41 -80.85, 14.75 106.90 2.42 64
6 04/14/2023 02:05:05 80.91,-177.05 73.21 04/14/2023 02:05:19 80.91,-176.87 73.23 3.26 14
7 04/16/2023 17:26:48 -80.86, 131.95 107.81 04/16/2023 17:26:20 -80.85, 131.84 107.84 1.93 28
8 04/16/2023 18:16:08 80.92, -59.71 72.29 04/16/2023 18:16:58 80.91, -59.75 72.30 0.86 50
9 04/19/2023 08:48:30 80.83, 81.16 71.23 04/19/2023 08:47:21 80.82, 81.01 71.18 2.86 69
10 04/19/2023 09:37:51 -80.88,-110.60 108.69 04/19/2023 09:37:59 -80.87,-110.77 108.71 3.24 8
11 04/22/2023 00:59:33 80.83,-161.60 70.33 04/22/2023 00:59:00 80.84,-161.66 70.32 1.02 33



Historial Predications of SNOs between TERRA and METOP-C
